Regional Weather Roundup
Issued by NWS

Home | Current Version | Previous Version | Text Only | Print | Product List | Glossary On
Versions: 1 2 3 4 5 6 7 8 9 10 11 12 13 14 15 16 17 18 19 20 21 22 23 24 25 26 27 28 29 30 31 32 33 34 35 36 37 38 39 40 41 42 43 44 45 46 47 48 49 50
000
ASUS44 KLIX 250201
RWRLA
LOUISIANA WEATHER ROUNDUP
NATIONAL WEATHER SERVICE NEW ORLEANS LA
800 PM CST MON NOV 24 2014

NOTE: "FAIR" INDICATES FEW OR NO CLOUDS BELOW 12,000 FEET WITH NO
      SIGNIFICANT WEATHER AND/OR OBSTRUCTIONS TO VISIBILITY.
      SKY/WX - SKY CONDITION AND SIGNIFICANT WEATHER.
      TMP - AIR TEMPERATURE.    DP   - DEWPOINT TEMPERATURE.
      RH  - RELATIVE HUMIDITY.  PRES - PRESSURE.
      HX  - HEAT INDEX.         WCI  - WIND CHILL INDEX.

*  THESE STATIONS ARE NOT NWS OR FAA STATIONS AND ARE NOT UNDER
   NWS QUALITY CONTROL.

LAZ040-048-061>063-065-066-069-250300-
SOUTHEAST LOUISIANA

CITY           SKY/WX    TMP DP  RH WIND       PRES   REMARKS
N.O. AUDUBON   NOT AVBL
N.O. INTL ARPT CLOUDY    59  44  57 N13       30.01R
N.O. LAKEFRONT MOCLDY    59  51  75 N13       30.02R
N.O. DOWNTOWN* FAIR      61  43  51 N7        30.02R
SLIDELL        MOCLDY    55  45  68 N3        30.01R
BATON ROUGE    PTCLDY    52  36  54 CALM      30.04R
BOOTHVILLE     CLOUDY    62  54  74 N10       29.98R
BELLE CHASSE   MOCLDY    61  44  53 N6        30.00R
BOGALUSA*        N/A     53  43  68 N3        30.03R
NEW ROADS*     FAIR      49  40  73 CALM      30.05R
GONZALES*      NOT AVBL
HAMMOND*       MOCLDY    54  37  54 N6        30.04R
HOUMA*         MOCLDY    57  47  67 N9        30.01R
PORT FOURCHON* NOT AVBL

$$

LAZ041-044-053-054-250300-
SOUTHWEST LOUISIANA

CITY           SKY/WX    TMP DP  RH WIND       PRES   REMARKS
LAKE CHARLES   CLOUDY    56  37  49 N8        30.07R
LAFAYETTE      PTCLDY    52  39  61 N6        30.05R
PATTERSON      MOCLDY    55  37  50 N8        30.05R
SALT POINT       N/A     60  43  53 N5        30.02R
NEW IBERIA     PTCLDY    52  40  63 N6        30.05R
CHENAULT AIRPK MOCLDY    55  39  54 N5        30.08

$$

LAZ027-028-250300-
CENTRAL LOUISIANA

CITY           SKY/WX    TMP DP  RH WIND       PRES   REMARKS
FORT POLK      MOCLDY    47  43  85 N5        30.07R
ALEXANDRIA INT MOCLDY    48  40  73 N6        30.05R
ALEXANDRIA     PTCLDY    47  41  80 CALM      30.06R

$$

LAZ001-002-250300-
NORTHWEST LOUISIANA

CITY           SKY/WX    TMP DP  RH WIND       PRES   REMARKS
SHREVEPORT     PTCLDY    48  34  58 W3        30.09R
BARKSDALE AFB  PTCLDY    47  33  57 CALM      30.10R
DTN SHREVEPORT CLEAR     47  31  53 CALM      30.10R

$$

LAZ014-016-250300-
NORTHEAST LOUISIANA

CITY           SKY/WX    TMP DP  RH WIND       PRES   REMARKS
MONROE         PTCLDY    48  35  60 CALM      30.09R
TALLULAH       CLEAR     40  36  86 CALM      30.06R

$$



USA.gov is the U.S. government's official web portal to all federal, state and local government web resources and services.